Location: Namasale
(1.5000°N, 32.6167°E)
Time: 20:41:57
(UTC+00:00)

Envisat - Pass Details

Date: 08 December 2021
Orbit: 764 x 766 km, 98.2° (Epoch: 25 January)

Event Time Altitude Azimuth Distance (km) Brightness Sun altitude
Rises 01:35:56 0° 37° (NE) 3,216 6.4 -29.3°
Reaches altitude 10° 01:38:43 10° 52° (NE) 2,292 5.7 -28.7°
Maximum altitude 01:42:33 22° 102° (ESE) 1,626 5.4 -27.8°
Drops below altitude 10° 01:46:23 10° 152° (SSE) 2,298 6.1 -27.0°
Sets 01:49:09 0° 166° (SSE) 3,225 6.8 -26.3°
